Date,TemperatureHighF,TemperatureAvgF,TemperatureLowF,DewpointHighF,DewpointAvgF,DewpointLowF,HumidityHigh,HumidityAvg,HumidityLow,PressureMaxIn,PressureMinIn,WindSpeedMaxMPH,WindSpeedAvgMPH,GustSpeedMaxMPH,PrecipitationSumIn
2013-10-2,78.0,66.5,58.0,63.0,58.4,54.0,90,76,60,30.09,30.01,1,0,8,0.00
2013-10-3,74.0,66.0,59.0,59.0,55.2,51.0,84,69,51,30.22,30.09,0,0,4,0.00
2013-10-4,79.0,67.2,61.0,70.0,62.3,56.0,93,85,69,30.15,30.07,1,0,8,0.10
2013-10-5,71.0,64.3,60.0,65.0,61.3,58.0,95,90,79,30.19,30.11,1,0,5,0.01
2013-10-6,64.0,62.7,62.0,62.0,61.5,61.0,96,95,93,30.20,30.14,4,1,12,0.03
2013-10-7,70.0,65.0,56.0,68.0,63.7,54.0,97,96,93,30.14,29.85,3,0,14,0.47
2013-10-8,62.0,55.0,49.0,54.0,46.5,43.0,93,74,54,30.44,30.04,2,0,17,0.06
2013-10-9,59.0,52.7,47.0,48.0,44.4,40.0,87,74,57,30.52,30.41,6,1,15,0.00
2013-10-10,61.0,54.0,49.0,56.0,49.7,44.0,89,85,80,30.41,30.20,4,1,15,0.01
2013-10-18,63.0,57.9,51.0,61.0,49.6,43.0,95,75,52,30.06,29.75,2,0,9,0.01
2013-10-19,61.0,53.0,46.0,52.0,45.9,41.0,90,77,59,30.08,29.85,0,0,4,0.06
2013-10-20,58.0,50.0,45.0,53.0,40.5,-99.9,93,74,52,30.15,29.84,2,0,8,0.03
2013-10-21,61.0,51.3,44.0,45.0,40.7,38.0,82,68,43,30.24,30.09,1,0,7,0.01
2013-10-22,62.0,52.7,47.0,53.0,47.5,42.0,95,83,63,30.09,29.84,2,0,7,0.01
2013-10-23,51.0,45.5,40.0,42.0,37.6,35.0,86,74,60,29.91,29.72,1,0,7,0.01
2013-10-24,51.0,42.9,37.0,37.0,32.0,29.0,87,67,43,30.09,29.83,1,0,9,0.00
2013-10-25,49.0,44.1,38.0,36.0,32.3,29.0,80,64,52,30.32,30.09,2,0,19,0.00
2013-10-26,50.0,42.7,34.0,37.0,32.5,30.0,92,69,46,30.31,30.00,2,0,10,0.00
2013-10-27,54.0,46.0,39.0,39.0,32.3,-99.9,84,62,45,30.21,29.95,2,0,9,0.01
2013-10-28,57.0,46.1,37.0,37.0,32.6,-99.9,84,64,45,30.42,30.21,1,0,11,0.00
2013-10-29,51.0,43.8,38.0,34.0,30.8,28.0,70,60,50,30.52,30.43,2,0,7,0.00
2013-10-30,56.0,47.5,41.0,48.0,40.0,29.0,90,75,61,30.46,30.29,0,0,4,0.00